Home   Weather   Monterrey   Past weeks

Flag for Mexico Past Weather in Monterrey, Nuevo León, Mexico — Yesterday and Last 2 Weeks

Now
70 °F

Cloudy.


Feels Like: 70 °F
Forecast: 70 / 84 °F
Wind: 6 mph from Northwest

Location: Aerop. Internacional Monterrey - N. L.

Current Time: Sep 26, 2016 at 8:59:27 AM

Latest Report: Sep 26, 2016 at 7:40 AM


Visibility: 6 mi

Pressure: 30.05 "Hg (28.21 "Hg at 545m altitude)

Humidity: 100%

Dew Point: 70 °F

Location of MonterreyLocation

Past Weather in Monterrey — Graph

°F

Monterrey Temperature Yesterday

Maximum temperature yesterday: 88 °F (at 4:40 PM)
Minimum temperature yesterday: 72 °F (at 10:40 PM)
Average temperature yesterday: 78 °F

High & Low Weather Summary for the Past Weeks

 TemperatureHumidityPressure
High95 °F (Sep 19, 2:40 PM)100% (Sep 15, 6:47 AM)30.22 "Hg (Sep 15, 6:47 AM)
Low70 °F (Sep 22, 6:44 AM)20% (Sep 21, 1:40 PM)29.86 "Hg (Sep 24, 6:40 PM)
Average83 °F58%30.00 "Hg
* Reported Sep 11 7:40 AM — Sep 26 7:40 AM, Monterrey, Weather by CustomWeather, © 2016

Note: Actual official high and low records may vary slightly from our data, if they occured in-between our weather recording intervals... More about our weather records

Advertising

Monterrey Weather History for the Previous 24 Hours

Scroll right to see more
 ConditionsComfort  
Time TempWeatherWind HumidityBarometerVisibility
7:40 AM
Mon, Sep 26
70 °FCloudy.6 mph100%30.05 "Hg6 mi
6:40 AM70 °FLight rain. Overcast.No wind100%30.03 "Hg5 mi
5:40 AM70 °FLight rain. Mostly cloudy.2 mph100%30.01 "Hg5 mi
5:00 AM70 °FLight rain. Mostly cloudy.2 mph100%30.02 "Hg5 mi
11:40 PM
Sun, Sep 25
72 °FPartly cloudy.14 mph94%30.04 "Hg5 mi
10:40 PM72 °FLight rain. Mostly cloudy.12 mph94%30.02 "Hg5 mi
9:41 PM73 °FLight rain. Mostly cloudy.7 mph89%30.00 "Hg3 mi
8:40 PM73 °FLight rain. Mostly cloudy.7 mph83%29.96 "Hg4 mi
7:42 PM75 °FMostly cloudy.16 mph65%29.93 "Hg8 mi
6:40 PM77 °FMostly cloudy.15 mph65%29.91 "Hg10 mi
5:41 PM86 °FPartly sunny.14 mph40%29.88 "Hg10 mi
4:40 PM88 °FScattered clouds.7 mph43%29.87 "Hg7 mi
2:40 PM86 °FPartly sunny.6 mph52%29.92 "Hg6 mi
1:40 PM84 °FBroken clouds.3 mph55%29.97 "Hg6 mi
12:40 PM82 °FPartly sunny.No wind58%29.98 "Hg5 mi
11:41 AM81 °FBroken clouds.3 mph62%29.98 "Hg5 mi
10:40 AM77 °FMostly cloudy.3 mph69%29.98 "Hg5 mi
9:41 AM75 °FMostly cloudy.6 mph74%29.98 "Hg5 mi
8:40 AM75 °FMostly cloudy.3 mph74%29.97 "Hg5 mi
Weather by CustomWeather, © 2016

See weather overviewHow to use our weather pages